Grant County, OR

6:36 PM PST on December 10, 2019 (GMT -0800)
Grant County Regional

Weather History for KGCD - November, 2019

Change the Weather History Date:

Friday, November 15, 2019

  Actual Average (WUND) Record (WUND)
Temperature  
Mean Temperature 46 °F -  
Max Temperature 55 °F - - (-1)
Min Temperature 37 °F - - (-1)
Degree Days  
Heating Degree Days 19    
Moisture  
Dew Point 39 °F    
Average Humidity 76    
Maximum Humidity 97    
Minimum Humidity 47    
Precipitation  
Precipitation 0.04 in - - ()
Sea Level Pressure  
Sea Level Pressure 30.15 in    
Wind  
Wind Speed 3 mph ()    
Max Wind Speed 8 mph    
Max Gust Speed -    
Visibility 9.9 miles    
Events Rain    
Averages and records for this station are not official NWS values.
T = Trace of Precipitation, MM = Missing Value Source: Averaged Metar Reports

Daily Weather History Graph

Daily Weather History Graph

Search for Another Location

Airport or City:

Astronomy

Nov. 15, 2019 Rise Set
Actual Time 6:51 AM PST 4:28 PM PST
Civil Twilight 6:20 AM PST 5:00 PM PST
Nautical Twilight 5:45 AM PST 5:35 PM PST
Astronomical Twilight 5:10 AM PST 6:09 PM PST
Moon 7:04 PM PST (11/15) 9:57 AM PST (11/15)
Length of Visible Light 10h 39m
Length of Day
9h 36m
Waning Gibbous, 89% of the Moon is Illuminated
Nov 15
Waning Gibbous
Nov 19
Last Quarter
Nov 26
New
Dec 3
First Quarter
Dec 11
Full

Hourly Weather History & Observations

Time (PST) Temp. Windchill Dew Point Humidity Pressure Visibility Wind Dir Wind Speed Gust Speed Precip Events Conditions
12:15 AM 44.2 °F 41.0 °F 36.1 °F 73% 30.06 in 10.0 mi East 5.8 mph - N/A   Clear
12:35 AM 44.8 °F 42.4 °F 36.0 °F 71% 30.06 in 10.0 mi ENE 4.6 mph - N/A   Clear
12:55 AM 44.4 °F 41.2 °F 35.6 °F 71% 30.05 in 10.0 mi East 5.8 mph - N/A   Clear
1:15 AM 43.9 °F 41.3 °F 35.6 °F 73% 30.05 in 10.0 mi East 4.6 mph - N/A   Clear
1:35 AM 43.9 °F 40.5 °F 35.6 °F 73% 30.05 in 10.0 mi East 5.8 mph - N/A   Clear
1:55 AM 43.5 °F 38.9 °F 35.6 °F 74% 30.05 in 10.0 mi East 8.1 mph - N/A   Clear
2:15 AM 43.2 °F 39.0 °F 35.2 °F 74% 30.06 in 10.0 mi East 6.9 mph - N/A   Clear
2:35 AM 43.2 °F 39.0 °F 35.4 °F 74% 30.05 in 10.0 mi ESE 6.9 mph - N/A   Clear
2:55 AM 43.2 °F 40.5 °F 34.7 °F 72% 30.06 in 10.0 mi East 4.6 mph - N/A   Clear
3:15 AM 43.7 °F - 34.9 °F 71% 30.05 in 10.0 mi Calm Calm - N/A   Clear
3:35 AM 40.6 °F - 35.6 °F 82% 30.05 in 10.0 mi Calm Calm - N/A   Scattered Clouds
3:55 AM 39.0 °F - 35.6 °F 88% 30.05 in 10.0 mi Calm Calm - N/A   Mostly Cloudy
4:15 AM 39.2 °F - 36.0 °F 88% 30.06 in 10.0 mi Calm Calm - N/A   Overcast
4:55 AM 39.2 °F - 36.7 °F 91% 30.07 in 10.0 mi Calm Calm - N/A   Scattered Clouds
5:15 AM 38.7 °F - 37.0 °F 94% 30.07 in 10.0 mi Calm Calm - N/A   Clear
5:55 AM 38.1 °F - 36.1 °F 93% 30.08 in 10.0 mi Calm Calm - N/A   Scattered Clouds
6:15 AM 37.4 °F - 35.6 °F 93% 30.09 in 10.0 mi Calm Calm - N/A   Scattered Clouds
6:35 AM 38.3 °F 35.9 °F 36.9 °F 95% 30.10 in 10.0 mi NNW 3.5 mph - N/A   Clear
6:55 AM 39.9 °F - 36.0 °F 86% 30.10 in 10.0 mi Calm Calm - N/A   Clear
7:15 AM 38.5 °F 34.1 °F 36.1 °F 91% 30.09 in 10.0 mi ESE 5.8 mph - N/A   Scattered Clouds
7:35 AM 39.2 °F - 36.7 °F 91% 30.10 in 10.0 mi Calm Calm - N/A   Scattered Clouds
7:55 AM 41.0 °F 38.0 °F 36.0 °F 82% 30.11 in 10.0 mi ESE 4.6 mph - N/A   Scattered Clouds
8:15 AM 41.4 °F - 36.3 °F 82% 30.12 in 10.0 mi Calm Calm - N/A   Clear
8:35 AM 41.7 °F 39.8 °F 36.1 °F 81% 30.12 in 10.0 mi East 3.5 mph - N/A   Scattered Clouds
8:55 AM 43.3 °F - 36.0 °F 75% 30.13 in 10.0 mi Calm Calm - N/A   Mostly Cloudy
9:15 AM 43.7 °F 42.1 °F 36.1 °F 75% 30.14 in 10.0 mi ENE 3.5 mph - N/A   Scattered Clouds
9:35 AM 46.6 °F - 35.2 °F 65% 30.14 in 10.0 mi Calm Calm - N/A   Scattered Clouds
9:55 AM 47.5 °F - 35.6 °F 63% 30.14 in 10.0 mi Calm Calm - N/A   Scattered Clouds
10:35 AM 52.0 °F - 36.3 °F 55% 30.14 in 10.0 mi Calm Calm - N/A   Scattered Clouds
10:55 AM 55.6 °F - 35.8 °F 47% 30.14 in 10.0 mi Calm Calm - N/A   Scattered Clouds
11:15 AM 53.8 °F - 36.1 °F 51% 30.14 in 10.0 mi NNW 4.6 mph - N/A   Mostly Cloudy
11:35 AM 52.9 °F - 35.8 °F 52% 30.14 in 10.0 mi WNW 3.5 mph - N/A   Overcast
11:55 AM 51.8 °F - 36.5 °F 56% 30.15 in 10.0 mi WSW 4.6 mph - N/A   Overcast
12:15 PM 53.6 °F - 35.6 °F 51% 30.14 in 10.0 mi WSW 3.5 mph - N/A   Light Drizzle
12:35 PM 54.0 °F - 35.2 °F 49% 30.14 in 10.0 mi Calm Calm - N/A   Overcast
12:55 PM 54.5 °F - 36.1 °F 50% 30.14 in 10.0 mi West 4.6 mph - N/A   Overcast
1:15 PM 54.5 °F - 37.6 °F 53% 30.14 in 10.0 mi West 5.8 mph - N/A   Mostly Cloudy
1:35 PM 55.2 °F - 37.4 °F 51% 30.14 in 10.0 mi West 6.9 mph - N/A   Overcast
1:55 PM 54.9 °F - 37.4 °F 52% 30.14 in 10.0 mi West 4.6 mph - N/A   Overcast
2:15 PM 54.5 °F - 37.4 °F 52% 30.14 in 10.0 mi West 4.6 mph - N/A   Overcast
2:35 PM 54.5 °F - 37.6 °F 53% 30.14 in 10.0 mi Calm Calm - N/A   Overcast
3:15 PM 54.1 °F - 38.5 °F 55% 30.15 in 10.0 mi WSW 5.8 mph - N/A   Overcast
3:35 PM 53.8 °F - 39.2 °F 58% 30.16 in 10.0 mi West 5.8 mph - N/A   Overcast
3:55 PM 50.5 °F - 39.2 °F 65% 30.16 in 10.0 mi WNW 5.8 mph - N/A   Mostly Cloudy
4:15 PM 50.9 °F - 39.2 °F 64% 30.17 in 10.0 mi WNW 5.8 mph - N/A   Mostly Cloudy
4:35 PM 50.5 °F - 39.2 °F 65% 30.19 in 10.0 mi WNW 5.8 mph - N/A   Overcast
4:55 PM 50.2 °F - 41.0 °F 71% 30.19 in 10.0 mi West 5.8 mph - N/A Rain Light Rain
5:15 PM 47.8 °F - 43.3 °F 84% 30.19 in 5.0 mi SW 5.8 mph - 0.02 in Rain Rain
5:35 PM 46.6 °F - 43.3 °F 88% 30.20 in 10.0 mi SW 3.5 mph - 0.03 in Rain Light Rain
6:15 PM 46.8 °F - 43.7 °F 89% 30.21 in 10.0 mi Calm Calm - N/A   Overcast
6:35 PM 48.2 °F - 43.3 °F 83% 30.21 in 10.0 mi NW 3.5 mph - N/A   Overcast
6:55 PM 47.8 °F - 43.0 °F 83% 30.21 in 10.0 mi NNW 8.1 mph - N/A   Overcast
7:15 PM 46.4 °F - 44.2 °F 92% 30.22 in 10.0 mi Calm Calm - 0.01 in Rain Light Rain
7:35 PM 45.9 °F - 44.2 °F 94% 30.22 in 10.0 mi Calm Calm - 0.01 in   Overcast
7:55 PM 45.0 °F 43.5 °F 43.9 °F 96% 30.23 in 10.0 mi NW 3.5 mph - 0.01 in   Overcast
8:15 PM 45.0 °F - 44.1 °F 97% 30.24 in 10.0 mi Calm Calm - N/A   Overcast
8:35 PM 45.1 °F - 44.1 °F 96% 30.24 in 10.0 mi Calm Calm - N/A   Overcast
8:55 PM 45.5 °F 44.2 °F 44.2 °F 95% 30.24 in 10.0 mi SSW 3.5 mph - N/A   Overcast
9:15 PM 45.5 °F 43.2 °F 44.1 °F 95% 30.24 in 10.0 mi SW 4.6 mph - N/A   Overcast
9:35 PM 45.7 °F 43.4 °F 43.9 °F 93% 30.25 in 10.0 mi SW 4.6 mph - N/A   Overcast
9:55 PM 45.5 °F - 43.7 °F 93% 30.25 in 10.0 mi Calm Calm - N/A   Overcast
10:15 PM 45.5 °F - 43.2 °F 92% 30.25 in 10.0 mi Calm Calm - N/A   Overcast
10:35 PM 45.5 °F - 43.2 °F 92% 30.25 in 10.0 mi Calm Calm - N/A   Overcast
10:55 PM 45.7 °F - 43.2 °F 91% 30.26 in 10.0 mi Calm Calm - N/A   Overcast
11:15 PM 45.1 °F - 43.3 °F 93% 30.27 in 10.0 mi Calm Calm - N/A   Overcast
11:55 PM 45.0 °F - 41.2 °F 87% 30.28 in 10.0 mi Calm Calm - N/A   Overcast